When you browse on this site, cookies collect data to enhance your experience and personalize the content and advertising you see.
Visit our Privacy Policy to learn more. By continuing to use the site, you agree to this use of cookies and data.
  • In Austria
  • List of Countries
  • For 7 days
  • Water Temperature
  • Weather Map
  • News
  • Weather Widgets
  • user-avatar
    Login

    Hourly Weather Zapadnyy

    Today, 6 June, Saturday

    Time Temperature Precipitation Wind Pressure Humidity
    00:00 +16°C° 0 mm 3 mps 740 mmHg 94%
    01:00 +14°C° 0 mm 3 mps 740 mmHg 95%
    02:00 +14°C° 0 mm 3 mps 740 mmHg 96%
    03:00 +15°C° 0.2 mm 2 mps 741 mmHg 96%
    04:00 +16°C° 0.2 mm 2 mps 741 mmHg 97%
    05:00 +16°C° 0.2 mm 2 mps 741 mmHg 97%
    06:00 +17°C° 0.1 mm 3 mps 741 mmHg 95%
    07:00 +18°C° 0.1 mm 3 mps 742 mmHg 92%
    08:00 +19°C° 0 mm 3 mps 742 mmHg 90%
    09:00 +20°C° 0.1 mm 4 mps 743 mmHg 83%
    10:00 +21°C° 0.1 mm 4 mps 743 mmHg 77%
    11:00 +22°C° 0.1 mm 4 mps 743 mmHg 71%
    12:00 +23°C° 0 mm 4 mps 743 mmHg 67%
    13:00 +25°C° 0 mm 4 mps 744 mmHg 63%
    14:00 +26°C° 0 mm 4 mps 744 mmHg 61%
    15:00 +25°C° 0.1 mm 4 mps 744 mmHg 61%
    16:00 +25°C° 0.1 mm 3 mps 744 mmHg 62%
    17:00 +25°C° 0.1 mm 3 mps 744 mmHg 63%
    18:00 +23°C° 0 mm 2 mps 744 mmHg 70%
    19:00 +21°C° 0 mm 1 mps 745 mmHg 77%
    20:00 +17°C° 0 mm 0 mps 745 mmHg 84%
    21:00 +19°C° 0 mm 1 mps 745 mmHg 85%
    22:00 +18°C° 0 mm 1 mps 746 mmHg 86%
    23:00 +16°C° 0 mm 1 mps 746 mmHg 87%

    Tomorrow, 7 June, Sunday

    Time Temperature Precipitation Wind Pressure Humidity
    00:00 +16°C° 0 mm 1 mps 746 mmHg 88%
    01:00 +16°C° 0 mm 1 mps 747 mmHg 88%
    02:00 +16°C° 0 mm 1 mps 747 mmHg 88%
    03:00 +16°C° 0 mm 2 mps 747 mmHg 89%
    04:00 +16°C° 0 mm 2 mps 747 mmHg 90%
    05:00 +16°C° 0 mm 2 mps 747 mmHg 90%
    06:00 +18°C° 0 mm 2 mps 747 mmHg 87%
    07:00 +19°C° 0 mm 3 mps 747 mmHg 84%
    08:00 +21°C° 0 mm 3 mps 747 mmHg 81%
    09:00 +22°C° 0 mm 3 mps 747 mmHg 77%
    10:00 +25°C° 0 mm 3 mps 747 mmHg 72%
    11:00 +26°C° 0 mm 3 mps 747 mmHg 68%
    12:00 +27°C° 0.1 mm 4 mps 747 mmHg 65%
    13:00 +28°C° 0.1 mm 4 mps 747 mmHg 63%
    14:00 +28°C° 0.1 mm 4 mps 747 mmHg 61%
    15:00 +28°C° 0 mm 4 mps 746 mmHg 61%
    16:00 +28°C° 0 mm 4 mps 746 mmHg 61%
    17:00 +28°C° 0 mm 4 mps 746 mmHg 61%
    18:00 +26°C° 0 mm 4 mps 746 mmHg 67%
    19:00 +24°C° 0 mm 3 mps 746 mmHg 73%
    20:00 +21°C° 0 mm 3 mps 746 mmHg 79%
    21:00 +20°C° 0 mm 3 mps 746 mmHg 82%
    22:00 +19°C° 0 mm 3 mps 746 mmHg 85%
    23:00 +19°C° 0 mm 3 mps 746 mmHg 89%

    Day after tomorrow, 8 June, Monday

    Time Temperature Precipitation Wind Pressure Humidity
    00:00 +18°C° 0 mm 3 mps 746 mmHg 90%
    01:00 +18°C° 0 mm 3 mps 746 mmHg 92%
    02:00 +17°C° 0 mm 3 mps 746 mmHg 93%
    03:00 +17°C° 0 mm 3 mps 746 mmHg 93%
    04:00 +17°C° 0 mm 3 mps 746 mmHg 92%
    05:00 +17°C° 0 mm 3 mps 746 mmHg 92%
    06:00 +19°C° 0 mm 3 mps 746 mmHg 85%
    07:00 +21°C° 0 mm 3 mps 746 mmHg 78%
    08:00 +23°C° 0 mm 4 mps 746 mmHg 72%
    09:00 +25°C° 0 mm 4 mps 747 mmHg 65%
    10:00 +27°C° 0 mm 4 mps 747 mmHg 59%
    11:00 +29°C° 0 mm 4 mps 747 mmHg 53%
    12:00 +29°C° 0 mm 4 mps 747 mmHg 51%
    13:00 +30°C° 0 mm 4 mps 747 mmHg 49%
    14:00 +30°C° 0 mm 4 mps 746 mmHg 47%
    15:00 +30°C° 0 mm 4 mps 746 mmHg 51%
    16:00 +29°C° 0 mm 4 mps 746 mmHg 56%
    17:00 +29°C° 0 mm 4 mps 745 mmHg 60%
    18:00 +27°C° 0 mm 3 mps 745 mmHg 66%
    19:00 +25°C° 0 mm 3 mps 745 mmHg 73%
    20:00 +22°C° 0 mm 3 mps 745 mmHg 79%
    21:00 +21°C° 0 mm 2 mps 745 mmHg 83%
    22:00 +20°C° 0 mm 2 mps 746 mmHg 86%
    23:00 +19°C° 0 mm 2 mps 746 mmHg 90%

    9 June, Tuesday

    Time Temperature Precipitation Wind Pressure Humidity
    00:00 +19°C° 0 mm 2 mps 746 mmHg 91%
    01:00 +18°C° 0 mm 2 mps 746 mmHg 92%
    02:00 +18°C° 0 mm 2 mps 746 mmHg 93%
    03:00 +18°C° 0 mm 2 mps 746 mmHg 93%
    04:00 +18°C° 0 mm 2 mps 746 mmHg 93%
    05:00 +18°C° 0 mm 2 mps 746 mmHg 93%
    06:00 +20°C° 0 mm 3 mps 746 mmHg 88%
    07:00 +21°C° 0 mm 3 mps 746 mmHg 83%
    08:00 +24°C° 0 mm 3 mps 746 mmHg 78%
    09:00 +26°C° 0.1 mm 4 mps 746 mmHg 70%
    10:00 +27°C° 0.1 mm 4 mps 746 mmHg 63%
    11:00 +29°C° 0.1 mm 5 mps 746 mmHg 55%
    12:00 +29°C° 0.1 mm 4 mps 746 mmHg 53%
    13:00 +30°C° 0.1 mm 4 mps 746 mmHg 51%
    14:00 +30°C° 0.1 mm 4 mps 746 mmHg 48%
    15:00 +30°C° 0 mm 4 mps 746 mmHg 51%
    16:00 +30°C° 0 mm 3 mps 746 mmHg 54%
    17:00 +30°C° 0 mm 3 mps 746 mmHg 57%
    18:00 +28°C° 0 mm 2 mps 746 mmHg 64%
    19:00 +26°C° 0 mm 2 mps 746 mmHg 71%
    20:00 +24°C° 0 mm 2 mps 746 mmHg 78%
    21:00 +23°C° 0 mm 2 mps 746 mmHg 81%
    22:00 +21°C° 0 mm 2 mps 746 mmHg 84%
    23:00 +20°C° 0 mm 2 mps 746 mmHg 87%

    10 June, Wednesday

    Time Temperature Precipitation Wind Pressure Humidity
    00:00 +20°C° 0 mm 2 mps 746 mmHg 89%
    01:00 +20°C° 0 mm 2 mps 746 mmHg 91%
    02:00 +19°C° 0 mm 2 mps 746 mmHg 94%
    03:00 +19°C° 0 mm 2 mps 746 mmHg 94%
    04:00 +19°C° 0 mm 2 mps 746 mmHg 94%
    05:00 +19°C° 0 mm 2 mps 746 mmHg 94%
    06:00 +21°C° 0.2 mm 2 mps 746 mmHg 90%
    07:00 +22°C° 0.2 mm 3 mps 746 mmHg 86%
    08:00 +24°C° 0.2 mm 3 mps 746 mmHg 82%
    09:00 +26°C° 0.5 mm 3 mps 746 mmHg 75%
    10:00 +28°C° 0.5 mm 4 mps 746 mmHg 68%
    11:00 +29°C° 0.5 mm 4 mps 746 mmHg 61%
    12:00 +30°C° 0.4 mm 4 mps 746 mmHg 59%
    13:00 +30°C° 0.4 mm 4 mps 745 mmHg 56%
    14:00 +32°C° 0.4 mm 4 mps 745 mmHg 54%
    15:00 +31°C° 0.2 mm 3 mps 745 mmHg 55%
    16:00 +30°C° 0.2 mm 3 mps 745 mmHg 56%
    17:00 +30°C° 0.2 mm 3 mps 745 mmHg 57%
    18:00 +28°C° 0.1 mm 3 mps 745 mmHg 63%
    19:00 +26°C° 0.1 mm 3 mps 745 mmHg 70%
    20:00 +24°C° 0.1 mm 2 mps 745 mmHg 76%
    21:00 +23°C° 0 mm 2 mps 745 mmHg 79%
    22:00 +23°C° 0 mm 2 mps 745 mmHg 83%
    23:00 +21°C° 0 mm 2 mps 745 mmHg 87%

    11 June, Thursday

    Time Temperature Precipitation Wind Pressure Humidity
    00:00 +20°C° 0 mm 2 mps 745 mmHg 89%
    01:00 +20°C° 0 mm 2 mps 745 mmHg 92%
    02:00 +19°C° 0 mm 2 mps 745 mmHg 95%
    03:00 +20°C° 0 mm 2 mps 745 mmHg 95%
    04:00 +20°C° 0 mm 2 mps 745 mmHg 95%
    05:00 +20°C° 0 mm 2 mps 745 mmHg 95%
    06:00 +21°C° 0 mm 3 mps 745 mmHg 89%
    07:00 +24°C° 0 mm 3 mps 745 mmHg 83%
    08:00 +26°C° 0 mm 3 mps 745 mmHg 76%
    09:00 +27°C° 0.2 mm 3 mps 745 mmHg 70%
    10:00 +29°C° 0.2 mm 4 mps 745 mmHg 64%
    11:00 +30°C° 0.2 mm 4 mps 745 mmHg 58%
    12:00 +30°C° 0.5 mm 4 mps 744 mmHg 57%
    13:00 +32°C° 0.5 mm 4 mps 744 mmHg 57%
    14:00 +31°C° 0.5 mm 3 mps 744 mmHg 57%
    15:00 +31°C° 0.2 mm 3 mps 744 mmHg 57%
    16:00 +31°C° 0.2 mm 3 mps 743 mmHg 58%
    17:00 +30°C° 0.2 mm 3 mps 743 mmHg 58%
    18:00 +29°C° 0.1 mm 3 mps 743 mmHg 65%
    19:00 +27°C° 0.1 mm 2 mps 743 mmHg 71%
    20:00 +25°C° 0.1 mm 2 mps 744 mmHg 77%
    21:00 +24°C° 0 mm 2 mps 744 mmHg 80%
    22:00 +23°C° 0 mm 2 mps 744 mmHg 83%
    23:00 +21°C° 0 mm 2 mps 744 mmHg 86%
    Show more